Ana Sayfa
METAR-TAF:

METAR-TAF

Havaalanları :

Lexington, Kuzey Carolina, Amerika Birleşik Devletleri

Enlem: 35-46-52N, Boylam: 080-18-14W, yükseklik: 223 m

Güncel hava durumu gözlemi

Rapor saat 00:15 UTC de 17 dakika önce yapıldı.
Sakin rüzgar
Sıcaklık 7°C
Nem 57%
Basınç 1014 hPa
Görüş mesafesi: 16.1 km
6500 ft yükseklikte çok bulutlu

METAR: KEXX 270015Z AUTO 00000KT 10SM OVC065 07/M01 A2995 RMK AO2 T00661015

Saat: 19:32 (00:32 UTC)


TAF: eksik

4.000'den fazla havaalanı için hava durumu gözlemleri ve tahminleri (METAR ve TAF raporları).

Kullanılabilir istasyonlar harita üzerinde sarı ve kırmızı noktalarla gösterilir.

İstasyonun adını görmek için fareyi noktanın üzerinde gezdirin.

Sonrasında hava gözlem ve tahminlerini görmek için tıklayın.

Haritayı değiştirmek için: yaklaştırmak için siyah artı işaretli yeşil düğmeye ve uzaklaştırmak için de eksi işaretli düğmeye hızla tıklayın; bitişik haritalar için yeşil okları kullanın.


METAR-TAF: